Regional Weather Roundup
Issued by NWS

Home | Current Version | Previous Version | Graphics & Text | Print | Product List | Glossary On
Versions: 1 2 3 4 5 6 7 8 9 10 11 12 13 14 15 16 17 18 19 20 21 22 23 24 25 26 27 28 29 30 31 32 33 34 35 36 37 38 39 40 41 42 43 44 45 46 47 48 49 50
000
ASUS43 KLMK 230502
RWRKY
KENTUCKY REGIONAL WEATHER ROUNDUP
NATIONAL WEATHER SERVICE LOUISVILLE KY
100 AM EDT MON OCT 23 2017

NOTE "FAIR" INDICATES FEW OR NO CLOUDS BELOW 12,000 FEET
WITH NO SIGNIFICANT WEATHER AND/OR OBSTRUCTIONS TO VISIBILITY.

KYZ001>023-026-027-061>063-070>075-230600-
WESTERN AND SOUTH CENTRAL KENTUCKY

CITY           SKY/WX    TMP DP  RH WIND       PRES   REMARKS
PADUCAH        CLOUDY    56  53  90 NW8       29.90R
HENDERSON      RAIN      65  64  97 SE9       29.88S
OWENSBORO      LGT RAIN  69  63  81 SE12      29.89F
HOPKINSVILLE   MIX PCPN  66  66 100 S13       29.91  FOG
BOWLING GREEN  CLOUDY    72  62  71 SE13      29.93F
GLASGOW        CLOUDY    70  58  66 SE10G16   29.96S
$$

KYZ024-025-028>034-038-045-046-053-230600-
NORTH CENTRAL KENTUCKY

CITY           SKY/WX    TMP DP  RH WIND       PRES   REMARKS
LOUISVILLE/SDF CLOUDY    70  57  63 SE10      29.95F
LOUISVILLE/LOU CLOUDY    70  57  63 SE9       29.96F
FORT KNOX      CLOUDY    70  58  65 SE10      29.94F
$$

KYZ035>037-039>044-047>052-055>060-089>105-230600-
NORTHEAST KENTUCKY

CITY           SKY/WX    TMP DP  RH WIND       PRES   REMARKS
LEXINGTON      MOCLDY    67  52  58 SE10      30.01F
COVINGTON      CLOUDY    66  53  63 S12       30.01F
FRANKFORT      MOCLDY    66  52  60 SE5       29.99F
$$

KYZ054-064>069-076>088-106>120-230600-
SOUTHEAST KENTUCKY

CITY           SKY/WX    TMP DP  RH WIND       PRES   REMARKS
JACKSON        CLOUDY    66  52  60 SE7       30.09F
LONDON         CLOUDY    67  54  63 SE8       30.05F
SOMERSET       CLOUDY    64  52  63 SE7       30.04S
MIDDLESBORO    CLOUDY    69  57  67 SE3       30.09F
MONTICELLO     MOCLDY    67  57  70 E8        30.03F
$$





USA.gov is the U.S. government's official web portal to all federal, state and local government web resources and services.